Jendouba, Tunisia

12:09 PM CET on October 21, 2019 (GMT +0100)
Jendouba

Weather History for DTTN - August, 2019

Change the Weather History Date:

Friday, August 2, 2019

  Actual Average Record
Temperature  
Mean Temperature 93 °F -  
Max Temperature 109 °F 96 °F - ()
Min Temperature 77 °F 66 °F - ()
Cooling Degree Days 28    
Growing Degree Days 43 (Base 50)    
Moisture  
Dew Point 53 °F    
Average Humidity 25    
Maximum Humidity 49    
Minimum Humidity 6    
Precipitation  
Precipitation 0.00 in 0.02 in - ()
Sea Level Pressure  
Sea Level Pressure 29.87 in    
Wind  
Wind Speed 5 mph ()    
Max Wind Speed 12 mph    
Max Gust Speed 25 mph    
Visibility 6.4 miles    
Events      
T = Trace of Precipitation, MM = Missing Value Source: Averaged Metar Reports

Daily Weather History Graph

Daily Weather History Graph

Search for Another Location

Airport or City:

Astronomy

Aug. 02, 2019 Rise Set
Actual Time 5:31 AM CET 7:30 PM CET
Civil Twilight 5:03 AM CET 7:58 PM CET
Nautical Twilight 4:28 AM CET 8:32 PM CET
Astronomical Twilight 3:51 AM CET 9:09 PM CET
Moon 6:49 AM CET (8/2) 8:50 PM CET (8/2)
Length of Visible Light 14h 55m
Length of Day
13h 58m
Waxing Crescent, 3% of the Moon is Illuminated
Aug 2
Waxing Crescent
Aug 7
First Quarter
Aug 15
Full
Aug 23
Last Quarter
Aug 30
New

Hourly Weather History & Observations

Time (CET) Temp. Heat Index Dew Point Humidity Pressure Visibility Wind Dir Wind Speed Gust Speed Precip Events Conditions
12:00 AM 84.2 °F 83.0 °F 55.4 °F 37% 29.89 in 5.0 mi SSW 4.6 mph - N/A   Partly Cloudy
1:00 AM 87 °F - 53 °F 21% 29.90 in 5 mi SW 6.9 mph - -   Partly Cloudy
2:00 AM 87.8 °F 85.7 °F 53.6 °F 31% 29.89 in 5.0 mi WSW 4.6 mph - N/A   Partly Cloudy
3:00 AM 84.2 °F 83.0 °F 55.4 °F 37% 29.89 in 5.0 mi South 4.6 mph - N/A   Partly Cloudy
4:00 AM 84 °F - 55 °F 26% 29.88 in 6 mi SSW 2.3 mph - -   Scattered Clouds
4:00 AM 84.2 °F 83.0 °F 55.4 °F 37% 29.86 in 6.2 mi SSW 2.3 mph - N/A   Partly Cloudy
5:00 AM 84.2 °F 82.8 °F 53.6 °F 35% 29.89 in 6.2 mi WSW 5.8 mph - N/A   Partly Cloudy
6:00 AM 78.8 °F - 57.2 °F 47% 29.86 in 6.2 mi WSW 2.3 mph - N/A   Partly Cloudy
7:00 AM 82 °F - 57 °F 32% 29.88 in 9 mi East 2.3 mph - -   Scattered Clouds
7:00 AM 82.4 °F 82.0 °F 57.2 °F 42% 29.86 in 6.2 mi East 2.3 mph - N/A   Partly Cloudy
8:00 AM 89.6 °F 87.7 °F 55.4 °F 31% 29.86 in 6.2 mi Calm Calm - N/A   Partly Cloudy
9:00 AM 96.8 °F - 51.8 °F 22% 29.89 in 6.2 mi SW 4.6 mph - N/A   Partly Cloudy
10:00 AM 100 °F - 51 °F 11% 29.87 in 9 mi NW 2.3 mph - -   Scattered Clouds
10:00 AM 100.4 °F - 50.0 °F 18% 29.86 in 6.2 mi NW 2.3 mph - N/A   Partly Cloudy
11:00 AM 100.4 °F - 50.0 °F 18% 29.86 in 6.2 mi NNW 4.6 mph - N/A   Scattered Clouds
1:00 PM 104 °F - 49 °F 9% 29.86 in 9 mi NNW 10.4 mph - -   Partly Cloudy
1:00 PM 104.0 °F - 50.0 °F 16% 29.89 in 6.2 mi NNW 10.4 mph - N/A   Scattered Clouds
2:00 PM 105.8 °F - 50.0 °F 15% 29.89 in 6.2 mi NNW 10.4 mph - N/A   Scattered Clouds
3:00 PM 107.6 °F - 50.0 °F 15% 29.89 in 6.2 mi North 8.1 mph - N/A   Scattered Clouds
4:00 PM 108 °F - 45 °F 6% 29.83 in 9 mi NW 5.8 mph - -   Partly Cloudy
4:00 PM 107.6 °F - 44.6 °F 12% 29.86 in 6.2 mi NW 5.8 mph - N/A   Scattered Clouds
5:00 PM 107.6 °F - 42.8 °F 11% 29.83 in 6.2 mi NNW 6.9 mph - N/A   Partly Cloudy
6:00 PM - - - N/A% 29.86 in 6.2 mi NW 9.2 mph - N/A   Partly Cloudy
7:00 PM 102 °F - 46 °F 8% 29.82 in 9 mi NNW 5.8 mph - -   Partly Cloudy
7:00 PM 102.2 °F - 46.4 °F 15% 29.86 in 6.2 mi NNW 5.8 mph - N/A   Scattered Clouds
8:00 PM 98.6 °F - 46.4 °F 17% 29.86 in 6.2 mi NW 6.9 mph - N/A   Scattered Clouds
9:00 PM - - - N/A% 29.89 in 6.2 mi NNW 11.5 mph 25.3 mph N/A   Scattered Clouds
10:00 PM 89 °F - 66 °F 36% 29.89 in 5 mi NW 8.1 mph - -   Partly Cloudy
10:00 PM 87.8 °F 90.4 °F 66.2 °F 49% 29.92 in 5.0 mi NW 8.1 mph - N/A   Scattered Clouds
11:00 PM 87.8 °F 89.4 °F 64.4 °F 46% 29.92 in 5.0 mi NW 4.6 mph - N/A   Scattered Clouds